Location: Barcelona
(41.3830°N, 2.1830°E)
Time: 00:22:56
(UTC+02:00)

ISS - Pass Details

Date: 18 July 2019
Orbit: 409 x 418 km, 51.6° (Epoch: 22 July)

Event Time Altitude Azimuth Distance (km) Brightness Sun altitude
Rises 03:04:26 0° 308° (NW) 2,349 0.3 -25.6°
Reaches altitude 10° 03:07:01 10° 329° (NNW) 1,483 -0.5 -25.5°
Maximum altitude 03:09:22 18° 14° (NNE) 1,105 -0.8 -25.3°
Drops below altitude 10° 03:11:42 10° 59° (ENE) 1,478 -0.4 -25.2°
Sets 03:14:16 0° 80° (E) 2,337 0.4 -25.0°
